Satellite-Ground Cal/Val Site Overpasses Predictions

Prediction of Satellite NPP Overpassing Cal/Val Site: Antarctic Dome C

Ground Cal/Val Site Location: Latitude: -75.10, Longitude: 123.35; Satellite-Ground Site NADIR distance within 100 km.

Table of predicted overpasses for the next 14.0 days since TLE Epoch: 6/6/2014
Interval Starting Time Ending Time Minimum Distance Time Minimum Distance (km)
1 06/09/2014 14:55:07 06/09/2014 14:55:36 06/09/2014 14:55:22 6.37
2 06/11/2014 07:37:59 06/11/2014 07:38:28 06/11/2014 07:38:13 4.55
3 06/14/2014 15:01:31 06/14/2014 15:01:58 06/14/2014 15:01:45 30.31
4 06/15/2014 14:42:47 06/15/2014 14:43:05 06/15/2014 14:42:56 76.98
5 06/16/2014 07:44:22 06/16/2014 07:44:50 06/16/2014 07:44:36 31.62
6 06/17/2014 07:25:38 06/17/2014 07:25:56 06/17/2014 07:25:47 78.29
7 06/19/2014 15:07:55 06/19/2014 15:08:17 06/19/2014 15:08:06 67.05


NCC Satellite Cal/Val Overpasses Prediction Service
